• Join FlightAware (Why Join?)
  • Login
  • US Flag 
02:57PM EDT


 

Airport Tracker/Info


-or-


 

Live Flight TrackerFlight Track Log ✈ N319EE ✈ 08-Oct-2013 ✈ KROC - KPWM

Flight Track Log - Related Links

Times and Time Zones

All times are in EDT time to prevent confusion due to time zone crossing. See the N319EE flight status page for this flight to view local times or setup timezone preferences in your user account.

Time Position Orientation Groundspeed Altitude Reporting Facility
EDT Latitude Longitude Course Direction KTS MPH feet Rate Location/Type
04:18PM 43.1219 -77.6856 229° Southwest 128 147 1,200  Level Cleveland Center
04:19PM 43.1028 -77.7153 229° Southwest 161 185 2,900 1,980 Climbing Cleveland Center
04:19PM 43.0947 -77.7111 159° South 158 182 3,200 1,860 Climbing Cleveland Center
04:21PM 43.0669 -77.6636 129° Southeast 172 198 5,200 1,920 Climbing Cleveland Center
04:22PM 43.0717 -77.5981 84° East 171 197 7,200 1,740 Climbing Cleveland Center
04:23PM 43.0772 -77.5303 84° East 177 204 8,900 1,500 Climbing Cleveland Center
04:24PM 43.0817 -77.4578 85° East 187 215 10,400 1,620 Climbing Cleveland Center
04:25PM 43.0867 -77.3650 86° East 202 232 12,300 1,620 Climbing Cleveland Center
04:26PM 43.0939 -77.2856 83° East 210 242 13,800 1,440 Climbing Cleveland Center
04:27PM 43.0992 -77.2031 85° East 215 247 15,300 1,380 Climbing Cleveland Center
04:28PM 43.1036 -77.1178 86° East 223 257 16,700 1,260 Climbing Cleveland Center
04:29PM 43.1103 -77.0317 84° East 227 261 18,000 1,080 Climbing Cleveland Center
04:30PM 43.1147 -76.9456 86° East 227 261 19,000 960 Climbing Cleveland Center
04:31PM 43.1206 -76.8550 85° East 238 274 20,100 1,080 Climbing Cleveland Center
04:32PM 43.1272 -76.7456 85° East 240 276 21,300 960 Climbing Cleveland Center
04:33PM 43.1336 -76.6597 84° East 243 280 22,100 720 Climbing Cleveland Center
04:34PM 43.1383 -76.5650 86° East 249 287 22,800 420 Climbing Cleveland Center
04:35PM 43.1467 -76.4411 85° East 272 313 23,000 60 Climbing Cleveland Center
04:36PM 43.1525 -76.3264 86° East 298 343 23,000  Level Cleveland Center
04:37PM 43.1594 -76.2136 85° East 299 344 23,000  Level Cleveland Center
04:38PM 43.1678 -76.0986 84° East 303 349 23,000  Level Cleveland Center
04:39PM 43.1778 -75.9858 83° East 301 346 23,000  Level Cleveland Center
04:40PM 43.1875 -75.8728 83° East 300 345 23,000  Level Cleveland Center
04:41PM 43.1975 -75.7367 84° East 300 345 23,000  Level Cleveland Center
04:42PM 43.2061 -75.6239 84° East 300 345 23,000  Level Cleveland Center
04:43PM 43.2156 -75.5114 83° East 292 336 23,000  Level Boston Center
04:44PM 43.2250 -75.3950 84° East 292 336 23,000  Level Boston Center
04:45PM 43.2300 -75.2814 87° East 292 336 23,000  Level Boston Center
04:46PM 43.2394 -75.1478 84° East 299 344 23,000  Level Boston Center
04:47PM 43.2503 -75.0342 83° East 304 350 23,000  Level Boston Center
04:48PM 43.2778 -74.9269 71° East 304 350 23,000  Level Boston Center
04:49PM 43.3072 -74.8225 69° East 292 336 23,000  Level Boston Center
04:50PM 43.3178 -74.7061 83° East 298 343 23,000  Level Boston Center
04:51PM 43.3242 -74.5892 86° East 298 343 23,000  Level Boston Center
04:52PM 43.3306 -74.4725 86° East 298 343 23,000  Level Boston Center
04:53PM 43.3367 -74.3556 86° East 303 349 23,000  Level Boston Center
04:54PM 43.3428 -74.2386 86° East 303 349 23,000  Level Boston Center
04:55PM 43.3489 -74.1217 86° East 309 356 23,000  Level Boston Center
04:56PM 43.3547 -74.0050 86° East 309 356 23,000  Level Boston Center
04:57PM 43.3603 -73.8850 86° East 309 356 23,000  Level Boston Center
04:58PM 43.3658 -73.7681 86° East 309 356 23,000  Level Boston Center
04:59PM 43.3714 -73.6569 86° East 309 356 23,000  Level Boston Center
05:00PM 43.3767 -73.5369 86° East 309 356 23,000  Level Boston Center
05:01PM 43.3819 -73.4228 86° East 309 356 23,000  Level Boston Center
05:02PM 43.3911 -73.3086 84° East 304 350 23,000  Level Boston Center
05:03PM 43.3961 -73.1886 87° East 304 350 23,000  Level Boston Center
05:04PM 43.4011 -73.0689 87° East 309 356 23,000  Level Boston Center
05:05PM 43.4058 -72.9489 87° East 309 356 23,000  Level Boston Center
05:06PM 43.4125 -72.8203 86° East 309 356 23,000  Level Boston Center
05:07PM 43.4150 -72.7003 88° East 309 356 23,000  Level Boston Center
05:08PM 43.4214 -72.5803 86° East 309 356 23,000  Level Boston Center
05:09PM 43.4258 -72.4572 87° East 309 356 23,000  Level Boston Center
05:10PM 43.4278 -72.3400 89° East 309 356 23,000  Level Boston Center
05:11PM 43.4317 -72.2169 87° East 309 356 23,000  Level Boston Center
05:12PM 43.4356 -72.0969 87° East 309 356 23,000 -180 Level Boston Center
05:13PM 43.4414 -71.9739 86° East 309 356 22,700 -1,140 Descending Boston Center
05:14PM 43.4450 -71.8394 88° East 327 376 20,800 -2,040 Descending Boston Center
05:15PM 43.4483 -71.7050 88° East 341 392 18,700 -1,860 Descending Boston Center
05:16PM 43.4517 -71.5850 88° East 350 403 17,200 -1,800 Descending Boston Center
05:17PM 43.4547 -71.4447 88° East 344 396 15,200 -1,800 Descending Boston Center
05:18PM 43.4581 -71.3361 88° East 322 371 13,600 -1,680 Descending Boston Center
05:19PM 43.4631 -71.2158 87° East 310 357 11,900 -1,320 Descending Boston Center
05:20PM 43.4761 -71.0867 82° East 310 357 11,000 -540 Descending Boston Center
05:21PM 43.4811 -70.9894 86° East 297 342 10,900 -960 Descending Boston Center
05:22PM 43.4858 -70.8692 87° East 292 336 9,200 -1,620 Descending Boston Center
05:23PM 43.4886 -70.7717 88° East 292 336 7,700 -1,500 Descending Boston Center
05:24PM 43.4953 -70.6600 85° East 276 318 6,200 -1,320 Descending Boston Center
05:25PM 43.5000 -70.5711 86° East 263 303 5,100 -1,140 Descending Boston Center
05:26PM 43.5278 -70.4842 66° East 224 258 4,000 -1,140 Descending Boston Center
05:27PM 43.5494 -70.4147 67° East 219 252 2,900 -1,140 Descending Boston Center
05:28PM 43.5753 -70.3394 65° Northeast 208 239 1,800 -840 Descending Boston Center
05:29PM 43.5953 -70.2928 59° Northeast 179 206 1,300 -720 Descending Boston Center
05:30PM 43.6308 -70.3003 351° North 114 131 400 -900 Descending Boston Center